PDT,Max TemperatureF,Mean TemperatureF,Min TemperatureF,Max Dew PointF,MeanDew PointF,Min DewpointF,Max Humidity, Mean Humidity, Min Humidity, Max Sea Level PressureIn, Mean Sea Level PressureIn, Min Sea Level PressureIn, Max VisibilityMiles, Mean VisibilityMiles, Min VisibilityMiles, Max Wind SpeedMPH, Mean Wind SpeedMPH, Max Gust SpeedMPH,PrecipitationIn, CloudCover, Events, WindDirDegrees
2013-3-1,52,36,20,31,25,19,88,65,42,30.58,30.49,30.43,,,,10,5,13,0.00,,,187
2013-3-2,52,38,24,34,29,22,92,68,44,30.44,30.26,30.01,,,,10,4,12,0.00,,,187
2013-3-3,44,39,34,35,32,28,92,76,60,30.02,29.96,29.90,,,,10,3,14,0.03,,,29
2013-3-4,44,35,26,32,27,23,100,75,49,30.12,30.06,29.96,,,,12,5,14,0.00,,,23
2013-3-5,55,41,26,28,25,22,84,58,32,30.08,29.90,29.72,,,,25,14,33,0.00,,,165
2013-3-6,53,43,33,28,25,18,75,51,26,29.86,29.74,29.63,,,,29,12,35,0.00,,,201
2013-3-7,44,37,29,31,28,20,92,77,62,29.90,29.82,29.74,,,,18,6,23,0.03,,,17
2013-3-8,42,35,27,31,28,26,100,79,57,29.81,29.74,29.66,,,,17,7,22,0.02,,,355
2013-3-9,45,35,24,26,21,18,92,64,36,30.34,30.10,29.83,,,,24,10,32,0.00,,,351
2013-3-10,49,35,21,24,20,17,88,60,31,30.44,30.36,30.30,,,,14,5,17,0.00,,,148
2013-3-11,55,40,25,28,23,17,81,54,27,30.34,30.25,30.16,,,,12,5,15,0.00,,,177
2013-3-12,61,45,28,32,27,24,85,56,26,30.26,30.21,30.14,,,,10,5,13,0.00,,,182
2013-3-13,71,51,31,31,27,19,85,50,15,30.31,30.21,30.12,,,,15,6,20,0.00,,,189
2013-3-14,71,52,33,34,27,23,70,44,17,30.23,30.14,30.08,,,,13,5,15,0.00,,,199
2013-3-15,67,52,36,31,23,11,65,38,11,30.09,30.01,29.94,,,,15,5,22,0.00,,,221
2013-3-16,63,46,28,28,20,12,75,45,15,30.01,29.89,29.80,,,,23,7,33,0.00,,,259
2013-3-17,55,41,27,23,13,5,56,35,14,29.98,29.89,29.81,,,,30,14,38,0.00,,,272
2013-3-18,58,39,19,22,13,8,65,40,15,30.07,30.01,29.96,,,,21,6,27,0.00,,,271
2013-3-19,57,46,35,27,23,17,64,46,28,30.09,30.01,29.92,,,,15,6,18,0.00,,,185
2013-3-20,62,53,44,32,26,21,50,36,22,29.88,29.80,29.72,,,,29,13,42,0.00,,,245
2013-3-21,51,36,20,29,18,1,85,50,14,29.97,29.89,29.77,,,,26,10,36,0.00,,,338
2013-3-22,41,28,14,15,10,4,77,49,21,30.11,29.97,29.91,,,,25,12,34,0.00,,,344
2013-3-23,41,29,16,16,8,2,84,52,20,30.23,30.15,30.07,,,,12,6,16,0.00,,,7
2013-3-24,52,33,14,17,10,7,67,43,19,30.17,30.08,30.00,,,,16,4,21,0.00,,,137
2013-3-25,64,45,25,20,17,8,68,40,12,30.04,29.92,29.81,,,,16,6,23,0.00,,,210
2013-3-26,62,48,34,22,18,13,56,35,14,29.88,29.81,29.75,,,,21,7,28,0.00,,,240
2013-3-27,63,45,27,25,22,19,75,47,19,29.92,29.85,29.80,,,,12,5,17,0.00,,,174
2013-3-28,62,47,32,32,26,21,75,49,23,30.04,29.93,29.86,,,,22,5,32,0.00,,,194
2013-3-29,66,48,30,30,28,23,78,50,21,30.16,30.09,30.04,,,,20,4,23,0.00,,,191
2013-3-30,69,51,32,31,26,20,72,44,15,30.15,30.05,29.95,,,,16,5,20,0.00,,,173
2013-3-31,63,47,31,36,30,24,96,62,27,29.99,29.90,29.79,,,,36,9,44,0.08,,,192